RH
25 32 43 44 40 34 29 31 32 32 32 35 40 43 44 41 39 41 43 42 41 43 41 39 41 40 38 38 35 35 35 37 40 40 40 39 38 37 36 37 35 35 35 34 34 34 34 34 33 33 34 33 32 31 30 31 30 29 29 30 31 30 27 24 27 33 36 39 40 43 39 33 32 31 31 29 28 29 23 27 33 29 29 23 26 49
29 39 46 38 32 30 30 33 34 36 38 39 44 47 45 43 44 41 43 42 38 45 45 38 40 41 38 37 35 35 36 38 39 41 43 41 40 38 37 37 35 34 33 31 32 34 34 35 34 33 33 34 34 32 31 31 32 31 29 31 33 34 32 30 32 33 35 39 41 43 42 37 35 32 31 31 30 28 23 27 33 29 33 35 34 50
37 43 38 29 30 32 31 33 36 39 41 42 46 45 45 48 50 49 47 40 34 44 47 40 42 43 37 35 36 36 38 39 38 39 41 41 40 38 37 37 35 34 34 32 32 33 35 35 35 35 34 34 35 34 33 32 32 32 30 31 34 36 35 35 36 33 33 38 40 42 44 39 35 33 32 31 30 28 25 28 31 28 31 37 39 51
43 40 30 31 36 35 32 32 35 37 38 45 50 48 47 47 49 54 53 45 41 44 44 43 48 46 40 39 40 41 42 42 41 41 42 41 40 38 37 36 36 36 36 36 34 34 35 36 37 37 36 36 35 36 35 34 33 33 32 31 33 38 38 39 41 38 35 38 39 42 46 42 36 33 32 33 33 30 29 30 30 28 28 32 39 49
43 35 28 35 36 32 35 38 41 41 39 45 53 52 49 45 43 50 53 47 46 47 44 47 55 53 47 49 51 47 45 46 45 45 46 44 42 40 39 38 38 38 38 38 37 37 37 38 39 39 38 38 37 37 37 36 36 34 33 34 35 39 41 42 44 42 40 40 40 44 49 46 40 34 32 35 37 34 31 31 29 27 26 29 37 46
40 32 30 34 31 28 36 41 44 47 43 42 51 52 45 42 42 47 52 49 51 55 50 48 63 65 51 51 56 51 48 48 47 47 48 45 42 41 40 40 39 39 39 39 39 40 41 40 41 41 40 41 40 39 39 39 39 36 36 39 38 40 43 44 45 43 41 42 41 43 49 49 41 33 32 36 39 37 32 30 28 26 26 29 36 42
39 32 31 31 28 30 35 38 40 49 50 44 49 51 45 44 46 46 50 53 55 57 53 49 58 67 60 53 53 51 51 51 48 47 47 43 42 42 41 40 40 39 40 41 42 42 44 45 44 45 44 44 44 43 42 40 41 40 38 40 40 40 42 42 44 43 40 41 40 39 45 47 39 32 31 35 38 37 32 28 28 27 27 29 34 38
43 40 37 29 29 33 37 39 37 47 56 51 49 50 47 47 47 46 49 55 52 50 56 54 50 59 68 60 50 50 53 54 52 49 47 45 44 44 43 43 42 41 42 44 45 47 49 51 51 51 50 48 48 47 46 41 41 42 39 38 39 38 39 38 40 41 39 40 39 36 40 43 37 33 33 35 37 37 32 28 27 28 29 28 28 31
45 45 43 34 33 35 38 39 37 48 55 47 46 50 49 47 47 46 48 51 46 48 59 56 53 64 71 60 49 51 54 56 56 52 49 48 47 46 46 46 44 42 44 46 50 53 56 58 58 57 55 53 51 48 47 42 38 40 40 36 35 37 37 35 37 39 37 39 38 35 38 39 36 34 35 35 36 36 33 30 29 29 29 28 27 27
43 41 40 34 37 39 38 35 37 48 47 40 44 51 53 54 53 50 50 48 43 53 59 47 49 66 73 63 52 52 57 56 54 51 50 48 47 47 46 46 46 46 50 53 57 60 62 64 63 61 57 55 52 46 44 42 36 38 40 35 32 35 36 35 37 38 36 37 36 35 37 37 35 35 36 35 35 36 35 33 32 30 29 28 28 29
46 45 41 36 41 39 35 32 37 46 45 46 50 46 46 52 54 50 45 41 46 61 59 43 42 54 70 74 61 60 67 63 57 54 54 52 48 50 51 53 54 54 57 60 62 64 65 67 65 62 57 53 51 44 40 39 35 35 38 35 33 34 35 35 36 36 36 35 34 35 36 35 36 37 37 36 36 36 36 34 34 32 31 29 29 31
50 49 43 40 41 34 30 32 40 49 49 51 48 37 37 43 45 45 39 40 58 70 56 42 38 43 67 81 69 68 75 71 65 59 57 58 58 60 62 62 61 61 61 61 64 66 65 66 65 61 55 48 46 42 38 36 34 33 34 34 34 33 35 36 34 34 34 33 32 34 35 35 37 39 37 37 37 36 35 35 35 33 32 33 32 32
48 46 42 42 38 29 32 34 37 44 44 41 35 36 49 53 52 55 50 48 60 61 45 39 41 48 70 79 68 68 74 73 72 65 60 63 67 69 67 65 64 63 64 63 65 65 63 65 64 57 50 44 43 41 38 36 34 34 34 34 35 34 34 35 33 34 34 32 32 32 33 36 38 38 38 38 37 36 35 35 33 33 35 36 36 36
44 43 38 39 36 30 33 41 45 46 44 41 34 40 57 65 71 72 59 52 58 52 40 37 44 62 82 77 65 67 71 71 71 67 65 66 67 68 66 66 66 66 66 66 66 63 59 59 59 51 45 43 42 40 38 36 34 34 34 35 35 33 33 34 33 33 33 32 32 31 32 35 37 38 39 38 37 37 37 35 34 35 37 38 38 38
46 44 40 39 36 34 36 41 47 52 53 46 33 36 51 60 71 75 63 63 71 57 40 43 57 78 92 79 63 66 67 66 69 68 68 67 65 68 68 65 62 63 65 65 65 59 52 52 52 46 41 41 42 41 38 36 35 33 33 35 36 34 34 34 33 32 31 31 31 31 32 33 36 38 39 38 38 38 37 36 38 39 39 39 40 39
43 41 41 41 32 30 38 41 40 45 48 39 29 37 50 49 53 65 61 56 62 55 50 66 77 79 81 70 59 63 66 66 69 69 71 72 69 69 69 63 55 54 59 61 61 55 47 46 46 41 39 40 41 40 38 35 34 33 32 34 34 34 34 33 32 32 30 31 31 31 32 33 36 38 37 37 38 38 38 39 40 40 40 39 39 40
49 43 38 40 37 29 35 43 41 42 40 34 39 46 44 38 43 62 62 43 44 52 53 66 80 79 80 73 61 62 66 68 70 72 73 73 69 66 65 61 53 49 54 58 55 49 43 42 41 39 37 37 38 39 37 34 33 33 31 32 32 32 33 32 32 31 30 31 32 31 33 35 36 37 37 38 38 39 40 40 40 40 40 39 39 40
53 53 37 33 42 38 38 43 40 39 39 40 49 46 37 40 44 51 56 50 53 56 45 45 64 79 90 89 75 67 68 68 68 72 74 69 66 65 62 58 49 42 46 49 44 41 40 39 38 37 35 35 35 36 36 33 32 32 30 31 32 32 32 32 31 31 31 31 32 32 33 36 37 37 37 38 39 39 39 39 40 40 40 41 41 43
50 58 41 27 36 39 41 46 42 38 37 40 44 37 38 58 62 49 50 60 72 72 56 45 50 66 82 86 78 70 68 66 64 68 75 71 64 58 54 51 44 37 39 42 38 35 34 33 35 35 34 34 33 32 33 31 30 30 30 30 31 32 32 32 31 30 31 31 32 34 35 36 37 37 38 39 39 39 39 40 40 41 42 43 44 45
46 53 43 31 32 32 33 41 46 43 38 37 39 35 38 53 58 51 50 60 74 78 68 57 53 63 72 67 60 58 57 58 58 62 68 66 60 51 45 46 43 38 38 38 36 32 30 30 32 33 33 32 30 29 28 28 29 30 31 31 31 32 32 31 31 31 32 32 34 36 37 37 38 38 39 39 39 39 40 41 42 43 44 44 45 46
44 43 40 37 31 31 38 41 41 42 42 44 50 54 54 53 51 51 50 56 65 66 70 74 69 67 63 51 48 51 49 49 50 53 55 52 49 45 41 41 40 37 37 37 35 32 29 31 31 31 32 30 26 26 25 26 29 30 31 32 32 33 32 32 32 33 34 34 35 36 36 37 37 38 39 39 40 41 42 43 43 44 44 44 45 45
47 40 42 43 33 33 44 42 36 36 37 41 50 56 58 60 66 64 55 57 61 53 61 78 74 65 58 45 43 45 44 46 47 47 49 44 41 41 39 39 38 35 35 36 34 31 30 31 31 30 30 27 24 24 26 28 30 31 32 33 33 34 33 33 34 34 35 35 36 36 36 38 38 38 39 40 41 42 42 43 43 43 44 45 45 44
53 45 48 48 40 43 45 38 38 41 37 39 44 46 51 61 69 68 61 66 71 60 56 65 62 60 58 44 40 44 42 43 45 43 45 41 37 38 37 36 35 33 35 34 31 30 30 30 30 30 28 25 24 25 28 30 31 31 32 33 34 34 33 34 34 34 36 36 37 38 39 40 41 41 41 41 42 42 42 42 43 44 46 47 48 48
57 43 44 46 41 48 48 38 39 43 40 44 47 47 55 63 64 68 69 74 81 70 56 56 53 54 57 46 38 43 42 41 42 42 42 40 36 36 35 34 32 32 33 32 28 29 30 29 30 29 27 24 24 26 28 30 30 30 32 33 34 34 34 34 35 35 36 37 38 40 41 41 42 42 42 41 41 42 43 45 46 47 50 51 51 50
62 37 34 43 40 43 50 46 45 46 41 42 50 53 56 62 70 76 75 76 80 60 40 52 58 48 49 49 41 41 43 43 42 40 38 38 37 36 34 33 30 29 31 30 28 29 29 30 30 28 26 24 24 27 28 29 30 30 32 34 35 35 35 35 35 35 37 38 39 40 41 42 42 41 42 42 43 45 47 49 50 52 53 52 50 50
66 39 28 40 42 41 48 50 51 53 43 36 50 61 58 62 73 77 73 76 78 54 39 57 63 40 34 42 42 42 44 44 41 39 37 37 38 37 35 31 27 27 30 30 30 31 30 29 30 28 25 23 25 28 29 30 31 32 34 36 36 36 36 35 36 37 38 39 40 41 41 42 41 42 44 46 48 49 51 53 54 54 53 51 50 51
63 43 30 36 43 43 42 43 47 50 42 36 51 64 60 59 69 75 75 67 59 57 56 52 43 35 32 32 33 39 43 43 40 39 39 38 37 35 34 33 29 26 29 30 30 31 30 30 30 27 24 24 27 29 31 32 32 34 36 36 36 36 35 36 37 39 41 42 41 41 42 43 44 45 47 48 50 52 53 54 54 53 53 53 53 53
56 50 46 43 45 44 37 34 39 44 41 37 48 59 58 56 64 73 70 48 40 61 64 36 27 43 43 31 34 41 43 43 42 41 40 37 35 34 33 33 31 26 27 30 30 30 31 31 29 26 24 26 29 31 32 33 34 36 38 37 37 36 36 38 40 42 43 44 44 44 44 45 47 49 50 51 52 54 54 54 54 54 55 55 56 57
49 54 62 57 49 41 34 34 37 40 40 37 42 50 52 54 63 73 71 51 46 62 58 35 36 48 41 35 41 46 44 44 43 41 38 34 34 34 32 30 29 27 29 31 31 31 32 32 29 26 26 27 31 33 34 36 37 39 39 39 38 38 39 41 43 45 46 46 48 49 49 50 51 52 53 54 54 56 57 57 57 58 58 59 61 62
53 57 62 61 57 47 38 37 38 39 39 39 44 47 47 50 56 66 70 57 50 55 48 40 44 45 39 41 43 42 42 42 40 39 37 35 36 35 33 30 28 30 32 32 31 31 32 31 28 26 27 29 32 34 36 38 41 41 40 40 40 41 43 46 47 48 49 51 52 52 52 53 54 54 55 56 58 59 61 62 62 62 63 65 66 67
55 57 55 54 59 52 38 38 41 39 36 37 43 44 45 47 48 54 61 57 56 57 47 43 51 50 44 43 41 39 39 38 38 39 37 36 37 37 36 33 30 32 33 31 31 32 32 30 28 27 28 30 33 36 40 43 43 41 40 40 42 45 47 49 50 52 54 56 56 55 54 54 55 57 58 60 62 65 66 67 67 68 70 71 72 72
47 49 50 48 52 43 32 36 38 33 35 45 51 49 46 47 48 49 52 51 51 53 50 53 60 52 40 38 38 37 38 38 38 38 37 37 38 38 38 35 32 32 32 31 31 32 31 30 29 29 30 32 35 39 43 45 44 42 41 42 44 47 50 52 54 57 58 58 57 56 56 57 59 61 63 66 68 70 71 72 73 74 76 76 77 78
55 56 52 44 47 41 26 24 26 31 49 61 58 49 42 41 42 41 41 39 34 38 48 56 52 39 32 35 38 38 39 41 39 37 39 40 40 39 37 33 32 31 31 32 32 31 30 30 30 30 31 35 39 41 43 44 42 42 44 45 46 49 53 57 60 60 59 58 57 58 59 62 64 67 70 72 74 75 76 77 79 80 81 81 82 83
64 66 51 36 44 47 31 22 26 42 60 59 47 43 39 37 40 41 39 35 29 31 38 41 37 32 33 36 39 41 42 40 39 38 39 40 40 39 35 31 32 33 33 32 30 30 31 31 31 32 33 38 42 44 44 44 43 45 47 49 51 54 58 62 62 61 59 59 60 62 65 68 71 73 75 76 78 79 80 83 84 84 85 86 88 90
53 53 42 36 48 53 42 37 43 50 55 49 40 41 41 39 40 43 41 37 36 36 35 35 36 35 36 37 37 39 41 38 37 38 37 37 36 36 35 33 34 36 35 33 31 32 33 31 32 34 37 41 44 45 45 44 44 48 52 54 58 60 62 63 62 62 62 63 65 68 71 74 76 78 80 81 82 84 86 88 90 90 91 92 94 96
38 41 39 37 44 44 40 45 48 44 44 46 44 45 48 46 45 48 49 42 37 37 34 34 38 36 35 38 38 39 40 39 38 39 37 36 36 36 37 37 36 36 34 32 33 34 32 31 34 37 40 43 45 46 46 45 47 52 56 60 62 62 62 63 64 65 67 69 72 74 76 78 80 82 85 86 88 90 92 94 95 95 97 99 99 99
24 33 37 37 39 40 43 50 44 35 39 46 47 46 48 46 40 44 53 44 31 32 35 35 39 39 37 39 40 40 42 46 49 45 37 36 37 36 36 36 34 33 32 32 33 32 31 33 36 40 42 44 45 46 46 48 51 55 60 63 63 63 64 67 69 72 74 76 78 79 80 83 85 87 89 91 93 96 97 100 100 99 100 102 102 102
19 22 28 36 41 41 47 54 50 44 44 44 46 45 43 41 34 38 57 55 37 35 39 38 40 42 41 43 44 43 51 65 67 52 38 37 37 33 32 30 27 28 32 35 34 32 32 35 38 42 45 44 44 45 47 50 54 59 63 65 65 66 70 74 76 78 79 80 80 82 85 88 90 91 93 95 97 100 101 101 101 101 102 102 102 102
27 23 27 41 47 41 41 50 53 49 41 38 45 48 44 43 39 43 63 66 48 37 38 39 42 44 44 46 45 48 66 84 77 52 37 36 34 31 29 26 24 27 33 35 34 33 34 38 41 45 46 44 44 45 49 53 56 59 63 66 68 72 76 79 81 81 81 82 84 87 90 92 94 95 96 98 100 102 102 102 102 102 103 103 103 103
38 37 39 48 50 43 43 51 50 41 36 38 46 48 43 40 43 54 67 63 49 41 38 39 43 44 43 45 47 55 72 82 71 49 33 31 32 31 27 24 24 29 33 35 34 34 37 41 44 46 46 45 46 48 52 56 57 57 61 66 72 77 80 82 83 82 83 85 88 91 93 94 96 97 99 101 103 102 102 104 105 104 104 105 103 103
44 46 42 45 50 49 50 57 52 39 38 44 45 42 41 42 49 58 58 50 44 41 35 36 41 42 41 45 51 58 61 57 52 43 32 30 34 32 26 24 26 30 35 37 36 36 39 42 43 45 46 48 49 51 56 59 59 58 62 68 75 79 81 83 83 84 87 90 91 93 95 96 97 99 101 102 103 104 104 104 104 104 104 105 104 104
43 49 45 47 54 50 43 49 53 45 39 41 41 38 42 50 53 49 41 37 37 35 33 36 39 39 42 45 48 52 49 43 43 40 34 33 34 30 25 25 27 31 36 37 36 36 39 42 44 46 49 50 53 55 59 62 62 62 66 72 77 81 83 85 87 89 92 94 94 95 96 97 98 100 102 103 103 105 104 103 103 103 103 104 103 102
40 47 49 46 46 42 37 44 54 50 41 39 41 44 49 52 45 34 33 35 33 31 35 38 38 38 42 45 46 47 45 44 44 40 36 35 32 27 25 26 28 32 36 37 37 36 39 43 47 49 51 54 57 59 61 64 67 69 73 78 81 84 87 89 90 92 95 96 96 96 96 97 98 100 101 101 101 103 104 103 103 103 101 102 102 100
43 44 44 39 37 40 45 44 39 37 38 37 35 35 39 40 32 29 36 38 33 32 37 40 40 39 39 44 48 47 46 47 45 40 38 36 31 26 26 27 30 35 37 38 38 38 40 46 48 51 55 58 60 62 65 68 72 75 78 81 84 88 92 92 93 96 98 98 97 96 96 97 99 99 98 99 100 102 104 103 102 101 101 100 100 99
42 36 32 35 38 38 40 35 23 21 29 34 30 25 25 27 29 32 37 37 34 35 37 40 43 41 39 43 47 48 48 48 44 41 39 37 31 27 27 29 32 36 38 38 39 39 42 47 51 56 60 61 64 67 69 72 76 78 79 81 85 90 94 95 97 99 99 97 97 97 97 98 98 98 97 99 101 102 102 102 101 101 100 99 99 99
31 27 26 36 41 34 28 26 21 20 24 28 29 27 26 28 31 33 35 37 37 36 36 41 44 42 40 43 46 49 50 47 44 42 40 36 32 28 29 33 35 37 39 39 40 41 44 48 54 59 63 64 67 71 74 75 78 79 80 83 88 92 94 98 100 100 98 98 98 97 97 99 99 99 99 100 100 100 100 101 101 100 99 99 99 98
26 25 26 33 37 34 29 25 21 21 23 22 24 25 27 31 33 33 35 36 36 35 38 41 42 42 42 43 45 50 50 46 45 44 40 36 33 31 33 37 38 39 41 42 43 44 47 52 57 62 66 68 70 73 77 78 79 80 82 85 89 93 98 100 101 100 99 100 100 97 97 100 101 101 101 100 99 99 98 98 100 100 99 98 98 98
31 30 31 31 30 30 28 22 17 19 20 21 22 23 23 28 33 34 35 34 34 37 39 40 41 43 44 43 45 48 47 45 44 45 42 38 35 34 37 39 40 42 43 44 45 47 50 56 61 64 68 71 72 75 78 80 80 82 84 86 90 95 100 100 99 100 101 101 100 99 98 100 102 102 102 101 99 99 98 97 97 98 98 98 99 100
37 37 32 29 29 30 29 23 20 23 23 21 22 22 23 26 30 32 34 35 36 40 41 40 41 41 42 43 44 46 48 47 43 42 41 38 35 37 40 41 42 44 44 46 49 51 55 60 63 66 70 74 75 78 80 80 80 81 84 88 91 96 100 99 99 101 102 101 100 100 99 100 102 103 103 102 101 100 98 95 95 99 100 99 100 102
39 38 32 34 42 43 34 24 22 26 25 20 20 23 26 30 32 34 37 39 40 42 43 43 42 40 40 42 43 45 49 49 43 39 38 37 37 40 42 42 44 46 47 50 53 56 59 62 64 68 73 75 78 81 82 81 81 81 83 87 91 96 100 101 101 102 100 99 100 100 101 102 103 103 103 103 102 101 98 93 93 98 102 102 100 100
33 30 30 38 44 37 24 17 19 23 23 22 26 30 31 32 36 38 40 41 42 42 41 42 43 43 43 42 42 44 47 46 43 40 39 38 39 41 43 45 47 48 51 55 58 60 62 64 67 72 75 75 78 83 83 81 79 78 81 84 88 93 97 100 104 104 99 99 101 101 102 103 102 103 104 103 101 102 100 97 93 92 96 101 102 100
Wind_Speed
2 2 3 4 5 6 7 7 6 7 8 7 6 5 6 5 2 5 5 3 4 4 5 8 10 9 8 8 7 7 7 8 8 8 8 8 8 8 8 9 9 8 10 14 17 18 18 18 18 18 18 19 21 22 23 23 25 26 24 23 22 23 26 29 27 24 21 21 21 18 18 18 16 15 15 15 14 16 20 17 16 18 19 19 16 13
2 3 5 6 7 8 7 6 6 7 7 7 5 4 6 4 2 5 4 2 2 3 5 8 9 8 8 7 6 6 6 6 7 8 9 9 8 8 8 9 8 7 9 13 15 16 18 18 17 17 18 19 19 21 22 22 22 24 25 23 21 21 24 26 25 23 20 19 19 17 16 17 16 15 15 15 14 17 20 18 16 18 19 19 17 14
3 5 7 8 7 7 7 4 6 8 8 6 5 5 3 2 2 4 4 2 2 3 5 7 7 7 7 7 6 6 6 6 7 8 8 8 8 7 7 8 7 7 8 10 13 14 16 16 17 17 17 18 18 19 20 21 21 22 24 23 20 20 21 23 23 22 20 18 16 15 14 15 15 14 13 12 12 17 20 18 16 18 19 18 17 14
3 5 9 8 6 6 6 8 10 9 7 3 3 3 3 5 3 1 2 1 3 2 5 7 6 5 6 7 7 8 8 8 9 9 9 8 8 8 7 7 7 7 7 7 10 12 14 15 16 16 16 17 18 18 19 20 20 21 22 22 20 18 18 20 21 21 20 17 15 14 13 12 14 13 12 11 12 16 19 17 16 18 18 17 16 13
6 6 8 7 6 6 5 10 10 7 5 5 7 5 5 7 6 2 2 1 2 3 6 8 4 3 5 6 6 6 6 7 8 8 9 8 7 8 8 8 7 7 7 7 8 10 12 13 14 15 16 17 18 19 18 19 19 19 20 20 19 17 16 17 19 20 19 17 17 16 13 13 14 15 14 13 15 17 18 18 17 18 18 16 15 12
7 8 8 8 6 8 7 7 8 6 5 3 5 4 5 6 7 1 4 2 0 1 5 7 2 1 4 5 6 5 5 7 6 6 7 6 7 6 6 7 6 6 7 8 8 10 11 11 12 13 15 16 17 17 16 16 16 17 19 18 17 17 16 16 18 18 18 17 17 17 15 14 15 15 15 15 16 17 18 18 18 18 17 16 15 12
6 9 9 10 9 10 8 5 7 6 4 3 1 3 5 6 7 3 3 3 2 1 5 7 3 1 3 4 6 6 5 7 6 6 6 5 5 5 5 5 5 5 6 7 9 10 10 10 11 12 13 14 14 14 14 14 14 15 17 17 16 17 15 16 17 18 18 17 16 16 14 13 14 14 15 15 14 15 17 17 17 17 16 16 14 13
5 8 10 11 9 8 6 4 6 6 3 2 2 4 6 7 6 5 3 4 3 1 3 6 4 0 2 3 5 6 6 6 6 6 6 5 5 6 5 5 5 5 5 5 6 8 9 9 10 10 11 11 11 11 12 13 13 13 14 15 16 16 15 16 17 17 18 17 16 16 14 13 14 14 16 16 15 15 16 17 17 17 16 15 14 15
4 6 8 9 8 6 4 4 6 4 2 3 5 6 7 7 6 5 4 3 4 2 1 3 4 1 2 3 4 5 5 5 6 5 6 6 6 6 5 5 5 5 6 6 6 6 7 7 8 8 8 8 8 9 10 12 13 12 12 14 16 15 15 17 17 17 18 17 16 16 15 14 14 15 16 17 15 15 16 17 17 17 16 16 16 16
1 3 4 6 6 5 5 7 3 1 3 5 8 9 8 7 6 4 3 4 4 2 3 3 1 1 1 3 3 4 3 3 6 6 5 6 6 5 5 4 5 5 5 6 5 5 5 5 5 5 5 6 6 7 9 10 13 13 11 13 16 15 15 17 17 17 18 17 16 16 15 15 15 15 16 17 16 16 16 16 17 17 17 18 18 17
2 1 2 4 3 4 8 8 2 4 5 6 7 8 7 4 4 3 3 4 2 1 3 5 2 1 1 2 1 1 2 2 5 6 4 5 5 5 5 4 4 3 3 3 3 3 3 2 3 3 4 5 5 6 8 9 12 13 11 12 14 14 15 16 16 17 17 17 16 15 16 16 15 15 16 17 17 17 17 17 17 17 17 19 19 18
2 1 0 0 2 6 9 6 2 3 5 4 4 5 5 2 2 1 2 2 1 1 3 3 2 3 1 2 3 4 7 7 3 4 5 5 4 4 4 3 2 2 1 1 1 1 2 2 2 3 4 4 5 6 8 10 12 14 12 12 14 15 15 16 17 18 17 18 17 16 16 16 15 15 15 16 17 17 17 18 18 18 19 19 19 18
2 3 2 1 2 9 9 5 3 2 3 4 4 5 5 3 3 2 2 1 2 2 4 2 3 4 1 3 3 5 7 8 6 3 5 6 4 3 2 1 0 1 2 2 1 2 3 3 3 4 4 4 5 6 8 9 12 14 13 12 13 15 15 16 18 18 17 18 17 17 17 16 15 14 14 15 16 17 17 18 19 20 19 19 19 18
0 2 5 3 2 7 7 5 4 3 5 6 5 5 4 3 3 3 3 3 3 3 4 2 3 1 1 2 3 4 5 5 6 5 5 4 4 3 2 1 2 2 2 2 2 4 4 4 4 4 4 4 5 6 7 9 11 13 13 12 12 14 15 15 16 17 17 17 16 17 16 16 15 14 14 15 16 16 17 18 20 20 20 20 19 19
1 1 5 6 3 5 6 4 1 3 4 5 4 5 4 3 2 2 2 3 4 5 7 3 2 0 0 1 3 3 2 3 3 3 4 3 3 2 2 2 2 2 3 3 3 6 5 3 4 4 4 4 5 6 7 8 10 12 13 11 11 14 14 15 16 16 16 16 16 17 17 16 15 14 14 15 16 16 18 20 20 20 20 20 20 21
2 2 1 2 3 4 5 4 5 2 2 3 3 4 3 2 1 2 3 4 5 6 5 2 2 1 1 2 3 3 2 3 2 3 3 3 3 2 3 3 2 2 3 3 4 6 3 3 4 3 4 5 6 6 7 8 10 12 13 12 12 14 14 15 16 17 17 17 17 17 17 16 15 14 16 16 16 17 19 21 20 20 20 21 22 22
2 0 2 2 2 3 2 3 6 5 2 3 3 4 5 3 2 1 4 5 4 5 3 1 2 1 1 2 4 4 4 4 4 4 4 3 4 4 4 5 4 3 3 4 4 4 1 2 3 2 3 5 7 7 7 9 10 11 12 12 13 14 15 16 17 17 17 17 17 18 17 15 15 16 17 17 18 19 20 20 20 20 21 21 22 23
1 2 1 2 1 1 0 1 3 7 5 2 2 4 7 2 2 0 3 3 4 4 2 2 2 1 1 1 3 5 6 6 6 6 5 5 5 5 5 6 4 3 3 5 4 2 2 4 3 2 3 5 8 8 7 9 10 11 12 13 14 15 16 17 17 17 17 17 18 18 16 15 16 17 17 18 19 20 21 21 21 21 22 22 23 23
2 2 2 2 3 4 2 1 1 6 8 5 3 4 3 1 1 2 2 2 3 4 3 4 5 1 1 1 2 5 7 7 6 6 5 5 6 5 5 5 3 2 3 4 1 2 1 1 1 2 3 6 9 9 8 9 10 11 13 13 14 15 16 17 17 17 17 18 18 17 17 17 17 18 19 20 20 20 21 22 22 22 23 23 23 23
2 1 2 3 3 4 2 3 2 3 6 5 5 5 2 0 2 1 0 1 2 3 4 4 4 2 0 1 1 2 4 6 6 5 6 6 7 6 4 4 2 1 2 1 2 3 3 3 3 3 4 7 9 9 9 10 11 12 13 14 14 15 16 16 16 17 18 18 18 17 17 17 18 19 20 20 20 21 22 23 22 23 23 24 24 25
3 1 2 3 1 3 2 3 2 2 4 4 4 5 4 2 2 1 1 0 0 2 3 4 4 1 2 0 0 1 2 3 3 3 3 3 3 3 4 3 3 2 2 1 4 4 4 5 5 4 5 8 9 9 10 11 12 13 14 14 15 15 15 16 16 17 18 18 18 18 18 19 19 20 20 20 21 22 23 22 22 23 24 25 25 25
3 2 2 4 2 2 2 1 2 3 4 4 3 3 4 3 2 1 1 1 2 1 2 3 5 2 2 1 0 1 1 2 2 2 0 1 2 3 4 3 3 2 1 3 4 3 3 4 5 5 7 9 10 10 11 12 13 13 14 14 14 14 15 16 17 18 18 19 18 18 19 20 20 20 21 22 23 23 22 22 23 24 24 25 25 25
2 2 3 3 2 3 4 1 2 5 6 5 4 2 3 3 2 1 2 2 2 4 4 2 3 3 2 2 1 1 2 3 3 2 3 3 3 3 3 3 2 2 4 5 3 1 2 3 5 6 8 10 10 10 11 11 12 13 14 14 14 15 16 17 18 18 19 19 19 19 20 20 20 21 22 22 22 22 22 23 23 24 24 25 26 26
1 1 3 1 1 3 3 1 2 3 4 3 4 3 2 2 1 2 2 2 1 3 3 2 3 3 2 3 2 3 3 3 4 5 5 4 3 3 3 4 3 3 5 3 1 1 2 4 5 6 9 10 9 10 11 11 12 13 14 14 14 16 18 18 19 19 19 19 19 20 20 21 21 21 22 22 22 22 23 23 24 24 24 26 27 27
1 1 3 2 1 1 0 2 2 1 1 1 3 3 3 2 2 2 1 0 2 0 5 3 5 2 2 4 3 4 4 4 5 5 3 2 2 3 4 4 2 5 4 2 2 2 3 4 5 7 10 10 9 10 11 12 13 14 14 14 16 18 18 19 19 19 19 19 20 20 20 20 21 21 21 22 22 23 23 24 24 25 25 26 27 27
1 1 2 2 2 3 2 2 2 2 2 1 3 3 3 3 3 2 1 1 3 2 6 3 5 5 2 2 3 4 5 4 3 1 4 4 3 3 5 5 2 4 2 1 2 2 3 4 5 8 10 10 10 11 11 13 15 15 14 15 16 18 18 19 19 18 19 20 20 20 20 21 21 21 21 22 23 23 24 24 25 26 26 26 27 28
2 2 2 1 3 3 4 2 0 0 3 3 1 3 2 1 1 1 2 2 3 4 4 4 5 9 9 6 4 2 3 2 2 3 4 3 3 5 6 5 4 3 1 1 1 2 3 4 6 9 11 11 11 11 12 14 15 14 15 16 17 18 18 19 18 18 19 20 20 20 20 21 21 21 22 23 23 24 24 25 25 26 26 27 27 28
2 2 1 1 4 5 6 4 1 1 3 4 2 1 1 1 1 2 2 3 3 3 4 5 8 10 10 10 7 2 2 2 3 3 4 5 5 5 6 5 5 4 2 2 2 3 3 5 7 10 11 11 11 12 13 14 14 14 15 16 18 18 18 18 18 19 20 20 20 20 20 20 21 21 22 23 23 24 25 25 26 26 26 27 27 28
1 2 1 1 5 7 7 5 1 1 4 3 3 3 3 3 3 3 4 4 2 3 6 10 11 11 11 8 4 3 2 3 4 4 5 6 7 6 5 5 5 5 4 3 3 4 4 5 8 10 11 11 12 13 13 13 13 14 15 17 18 18 18 18 19 19 20 19 20 20 20 21 21 22 22 23 24 24 25 26 26 26 27 27 27 28
1 1 1 2 5 8 6 4 2 2 4 3 4 5 4 4 5 6 6 6 5 7 10 11 13 12 9 4 2 2 1 3 4 5 5 7 9 6 5 5 5 4 3 4 4 4 5 7 9 10 11 12 12 13 13 13 13 14 16 18 18 17 17 18 19 20 20 20 21 21 21 21 21 22 23 24 24 25 25 26 26 27 28 28 29 30
1 1 1 2 4 5 3 4 4 4 4 4 5 6 5 5 6 6 6 6 6 8 10 9 12 11 4 2 1 2 3 4 5 7 7 7 8 7 6 6 5 3 2 3 4 4 5 8 9 10 11 12 12 13 13 13 14 15 17 17 17 17 18 19 20 20 20 21 21 21 21 21 22 23 24 24 25 25 25 26 26 28 28 29 29 30
2 2 1 1 3 3 3 3 5 4 2 4 6 7 8 7 6 5 5 5 5 7 9 8 8 7 2 3 2 2 3 6 8 8 8 7 7 7 7 7 4 2 2 3 4 4 6 7 8 10 11 11 12 12 12 13 14 15 16 17 17 18 19 19 20 21 21 21 21 21 22 22 23 24 25 25 26 26 26 27 28 29 29 30 30 31
2 2 2 2 2 3 2 4 2 3 1 5 5 6 8 8 5 5 5 6 6 6 7 6 6 6 4 3 4 5 6 7 8 8 7 7 7 7 7 5 2 2 3 4 4 4 5 7 8 10 11 12 12 12 12 13 14 15 16 17 18 18 19 20 20 21 21 21 21 21 22 23 24 24 25 26 27 27 28 28 29 29 30 31 31 32
1 2 2 1 0 4 6 7 3 0 2 3 1 0 2 3 3 5 6 7 7 7 7 8 9 8 5 5 5 7 7 7 7 7 6 7 8 7 6 2 3 2 3 4 4 6 6 8 9 10 11 12 12 12 12 13 15 16 16 16 18 19 20 20 20 20 21 21 21 22 22 23 24 25 26 27 27 28 29 29 29 30 31 32 32 32
2 3 2 1 1 4 6 6 4 3 3 2 2 3 3 1 2 5 8 11 11 11 10 11 10 7 5 4 5 6 7 7 8 7 6 5 4 3 3 3 3 3 3 3 4 6 7 9 10 10 12 12 12 11 12 14 15 15 15 17 19 20 19 19 20 20 21 21 21 22 22 23 24 25 27 28 28 28 28 28 30 31 32 32 31 31
2 2 2 1 1 2 3 3 2 4 1 3 2 2 2 2 2 4 8 10 11 10 10 9 6 4 4 5 5 5 6 8 9 5 3 5 4 4 3 2 2 3 3 3 4 5 7 9 9 10 11 11 11 12 13 14 14 14 16 18 19 18 18 19 20 20 21 21 21 22 22 23 25 26 27 28 28 28 29 29 30 32 32 31 31 31
3 2 1 1 0 1 2 3 5 5 3 2 2 2 2 2 2 1 4 8 8 7 6 4 4 4 5 6 6 5 5 7 8 3 4 4 3 2 1 2 4 4 4 4 4 6 7 8 9 10 10 11 12 13 13 13 14 15 17 18 17 17 18 19 20 20 20 21 21 22 22 24 25 27 28 28 29 30 30 30 31 32 31 30 30 31
4 2 0 0 1 1 1 4 4 5 4 3 3 2 4 4 3 4 1 6 4 1 2 1 3 6 6 6 6 4 4 6 7 2 2 2 2 2 2 4 4 4 3 3 5 6 8 8 9 10 10 11 12 12 12 13 15 16 17 17 17 17 18 19 20 20 20 21 21 22 24 25 25 26 28 29 30 31 31 31 32 32 31 30 30 31
4 3 2 2 2 1 1 3 3 3 3 2 5 4 5 4 3 3 1 4 2 3 2 3 5 6 5 5 5 3 3 6 7 2 3 4 2 1 2 3 4 4 3 3 5 6 7 9 10 10 11 11 12 12 12 14 16 16 15 16 17 18 18 19 19 19 20 21 22 24 25 25 25 27 29 31 32 32 32 32 32 32 31 30 30 32
4 3 3 3 4 3 3 2 3 4 2 2 6 6 4 4 5 3 5 6 3 3 4 5 5 6 5 4 4 1 2 6 6 3 1 0 2 2 2 3 4 4 4 5 5 6 8 10 10 10 10 11 12 13 14 15 16 16 16 17 18 18 19 20 19 20 20 22 24 25 25 25 27 28 30 31 32 32 32 31 32 32 32 32 31 31
3 2 2 2 4 4 4 3 4 4 2 3 6 7 5 4 3 2 5 4 4 5 5 4 5 6 4 3 3 3 4 5 5 5 5 5 5 4 4 5 5 5 5 5 6 7 9 9 9 10 11 12 13 14 14 15 15 16 17 17 18 20 20 20 20 21 22 23 25 26 26 27 29 30 31 31 32 32 32 32 32 32 32 32 32 31
1 1 2 1 2 3 4 3 4 4 2 5 6 5 5 2 1 3 4 3 4 3 2 3 4 4 3 4 4 4 5 5 5 6 6 5 5 5 4 5 6 5 5 5 6 8 8 8 9 10 12 12 13 14 14 13 14 17 18 18 19 20 20 20 21 22 23 25 26 27 28 30 30 30 31 31 31 32 32 32 32 32 32 31 31 31
2 1 2 2 2 2 2 2 3 5 3 8 8 3 3 4 3 1 2 2 2 1 2 3 4 3 2 4 5 5 6 7 6 6 6 5 5 5 5 5 6 5 5 5 7 8 7 8 9 10 11 12 13 13 12 12 15 17 18 18 20 20 19 20 21 23 24 25 26 29 31 31 30 30 31 31 31 30 31 32 31 31 31 30 30 30
2 3 3 3 1 2 2 3 3 3 5 10 8 3 5 7 4 1 2 2 2 1 1 3 3 2 2 3 5 6 6 7 7 6 5 5 5 5 6 6 6 5 5 6 8 8 8 9 9 10 12 13 12 12 11 13 16 17 18 19 19 18 18 21 22 23 24 26 28 31 31 31 31 31 31 30 29 29 30 31 30 30 30 28 28 28
4 4 2 2 3 3 4 6 5 4 3 8 9 7 6 6 3 3 3 3 3 1 1 2 3 3 2 3 5 5 6 6 6 5 5 5 5 6 6 6 6 6 6 7 8 8 8 9 10 11 13 13 12 12 14 15 15 16 18 19 18 18 19 21 22 23 25 28 30 31 31 31 31 31 30 29 28 28 30 30 29 29 29 28 27 26
4 3 3 1 2 3 6 9 10 10 8 7 8 8 7 5 2 5 4 3 4 3 2 2 3 4 2 3 4 5 6 6 6 5 5 5 6 7 7 6 6 7 7 8 9 9 10 10 11 12 14 14 14 15 16 15 14 16 18 18 18 19 20 21 22 24 26 29 30 30 30 31 31 30 29 28 27 28 29 28 27 28 29 28 27 26
3 4 2 2 1 2 5 7 7 8 9 7 6 7 7 6 5 5 4 4 4 3 3 3 3 3 3 3 5 6 6 6 6 6 5 4 6 6 6 7 8 8 9 9 9 10 10 11 12 13 14 15 16 16 16 16 15 16 17 18 19 19 20 21 22 25 27 28 29 30 30 29 29 29 28 28 28 28 29 28 27 26 28 29 28 27
2 3 2 5 5 5 7 8 7 8 9 8 6 6 5 5 6 6 5 5 4 3 3 4 4 3 4 4 5 6 6 5 5 6 5 5 6 6 6 8 9 9 10 10 10 10 11 11 13 14 15 17 18 17 17 17 17 17 18 18 19 18 19 22 23 25 27 27 27 28 28 27 27 28 28 28 28 28 29 30 28 27 28 29 29 29
3 2 2 4 5 7 10 9 7 7 8 7 6 6 4 5 5 5 5 4 4 4 4 5 6 7 7 6 6 6 6 6 6 6 5 5 6 7 7 9 9 10 10 10 10 11 11 13 14 15 16 17 18 18 18 18 18 18 18 19 18 18 20 22 24 25 26 26 25 25 26 26 27 27 27 28 28 28 28 29 28 28 29 30 29 27
3 4 4 2 3 6 8 7 3 2 6 6 4 4 4 6 5 4 4 4 5 5 5 5 6 8 9 9 9 7 6 6 7 7 7 7 7 8 9 10 10 11 11 11 11 12 13 14 15 16 17 18 18 18 18 19 19 19 19 19 18 18 20 22 24 25 25 24 24 24 25 27 28 27 27 27 27 28 29 29 28 26 26 29 29 27
5 6 5 4 5 7 8 6 4 3 5 4 2 4 5 6 5 5 6 5 5 5 5 5 5 6 7 8 10 9 7 7 8 8 8 9 9 10 10 10 11 11 11 12 12 13 15 15 16 16 18 19 19 18 19 19 20 21 20 19 18 18 20 21 22 23 24 24 24 25 26 26 27 27 27 27 27 27 28 29 30 29 26 25 26 27
Wind_Direction
3 22 38 17 358 350 353 358 340 328 324 314 306 300 296 286 312 90 95 0 17 69 78 98 110 119 118 114 114 112 111 112 109 105 99 96 93 90 89 88 84 82 81 75 67 60 57 55 52 50 48 45 44 41 39 37 35 33 31 29 26 22 22 24 25 23 18 14 13 12 11 8 8 7 5 7 7 2 5 8 3 360 3 6 12 20
34 42 36 4 351 347 340 338 335 330 315 307 301 287 292 293 21 75 81 6 7 71 92 107 111 110 113 115 117 120 121 112 106 105 101 100 97 96 95 94 93 90 86 79 71 64 58 54 51 49 47 43 42 39 36 35 33 30 29 29 25 20 20 21 22 21 17 14 10 6 4 1 1 1 1 4 2 356 358 5 2 358 360 0 6 15
74 53 17 350 348 340 324 333 351 338 313 295 289 271 291 7 81 72 55 20 24 83 126 127 111 111 114 110 102 91 87 84 91 98 102 105 102 101 100 96 95 90 84 78 70 66 60 55 51 48 46 43 40 38 35 33 31 28 26 25 24 20 17 17 18 19 16 13 9 4 0 359 359 358 357 358 352 350 356 2 359 356 358 356 357 5
66 27 356 341 328 315 337 25 20 351 327 336 351 315 352 20 12 25 34 4 8 49 142 132 107 115 115 100 87 75 73 72 73 78 78 83 87 87 87 83 85 83 79 77 70 66 61 55 51 47 45 42 38 35 33 30 28 25 22 21 21 19 16 14 14 14 13 11 8 4 1 358 359 358 355 351 348 351 355 358 355 353 355 351 350 353
55 10 344 322 308 319 17 42 26 355 336 31 46 22 2 354 342 9 113 122 50 64 130 128 113 138 135 119 101 88 92 89 81 83 79 79 85 84 82 77 75 77 73 74 71 63 59 55 50 47 44 40 36 33 29 27 26 24 19 18 19 17 14 12 11 9 8 7 4 1 359 357 358 359 357 352 349 351 353 352 349 349 349 347 346 343
36 9 347 333 354 19 35 45 28 359 318 12 55 19 340 326 323 22 131 147 222 209 159 155 165 156 141 128 121 119 115 110 103 103 103 105 108 99 97 93 87 87 79 76 74 65 59 55 50 46 42 38 35 31 27 23 22 20 17 16 16 14 12 9 8 7 5 4 1 358 355 356 358 355 352 350 346 346 348 346 343 343 345 344 343 336
13 6 2 5 24 30 27 33 27 10 328 330 356 322 320 309 304 279 170 189 270 270 174 189 226 121 145 126 126 136 124 118 118 114 114 110 104 92 87 89 85 87 84 79 76 68 60 53 48 44 39 36 32 26 23 20 15 15 15 14 12 12 10 6 4 3 3 2 359 355 352 355 356 349 344 341 339 339 341 341 339 339 341 343 341 333
2 8 14 18 25 28 21 10 11 11 345 314 306 312 309 294 287 282 243 222 258 14 144 201 237 300 132 117 124 136 130 133 134 121 115 100 94 93 84 82 78 75 78 78 72 64 59 53 46 42 37 33 27 21 18 15 11 10 13 12 9 7 6 3 0 0 1 360 356 353 350 350 350 345 340 337 335 334 337 339 338 338 339 340 338 332
359 23 25 21 22 23 7 334 350 7 319 301 325 317 295 278 269 283 280 252 270 300 273 216 223 270 88 120 152 152 147 161 154 135 125 114 105 102 96 97 94 85 78 73 67 58 55 53 47 40 33 26 20 17 14 11 8 4 5 8 6 3 2 0 359 357 358 357 354 351 348 344 343 342 339 336 333 332 334 337 338 337 337 336 334 332
19 37 28 33 28 3 325 310 324 337 275 303 321 300 272 261 249 257 266 269 291 300 328 351 127 213 81 144 183 169 179 201 163 146 135 128 122 114 107 100 95 92 84 73 67 61 57 60 52 37 23 16 13 13 9 7 7 1 357 3 4 1 358 357 356 354 353 353 350 348 344 340 338 339 339 337 334 332 333 335 335 335 335 333 331 330
137 211 1 42 29 324 309 302 220 207 271 304 316 298 282 264 205 207 227 239 312 37 310 336 32 339 279 149 109 85 348 350 139 144 135 129 125 111 94 76 65 61 71 68 59 56 55 63 52 25 9 2 0 8 8 4 4 0 353 356 0 357 353 353 353 350 349 349 346 343 340 336 335 336 338 337 334 333 333 332 331 331 330 328 327 325
113 125 15 41 344 345 328 324 129 206 273 303 315 319 327 343 133 204 238 198 347 306 242 277 333 323 296 118 54 31 17 23 82 147 144 132 111 94 81 67 55 21 355 19 30 6 344 324 331 345 343 346 351 358 6 4 359 357 350 346 351 351 348 348 348 346 344 344 342 339 336 333 331 332 335 334 332 331 331 330 328 327 325 324 323 322
97 67 66 207 358 11 353 345 21 323 314 339 338 357 360 1 31 355 345 358 305 255 217 248 343 343 51 97 61 44 35 32 36 69 117 120 109 113 111 72 4 297 289 305 324 311 309 295 292 310 316 332 350 352 360 1 354 352 345 340 345 345 343 342 342 341 338 338 338 335 331 328 325 325 329 329 327 325 326 326 325 323 321 320 319 319
59 59 29 13 353 9 10 16 14 339 342 351 358 15 11 11 12 341 338 337 299 271 273 323 13 15 117 104 85 69 56 55 52 58 86 111 130 156 164 183 271 263 257 269 266 274 277 260 266 294 310 326 341 343 351 354 350 347 340 334 339 339 337 337 337 336 333 332 332 330 327 323 320 319 322 323 321 320 321 321 320 318 316 315 315 316
338 56 18 7 330 344 13 33 356 259 291 326 4 28 30 43 16 313 321 323 301 294 301 341 50 190 176 121 115 99 89 89 85 91 103 124 149 165 196 224 263 265 246 217 228 268 269 208 227 281 313 324 331 334 343 347 344 343 336 328 331 333 333 333 334 333 331 329 328 327 324 321 318 316 318 320 318 317 318 318 316 314 313 313 312 312
6 97 75 15 3 359 17 13 345 322 270 305 3 39 27 13 311 268 284 289 289 297 303 24 77 39 47 153 151 140 166 148 143 163 157 178 188 196 229 240 246 257 263 230 226 270 280 167 202 279 322 325 325 326 336 343 340 338 334 327 326 328 330 330 331 330 328 326 325 324 322 320 318 317 318 318 316 315 316 315 314 312 312 312 311 310
1 75 160 115 29 10 23 355 358 20 348 295 6 6 301 277 184 238 285 289 305 305 294 95 108 109 92 202 180 180 204 194 196 199 190 203 216 228 248 252 235 211 237 251 244 262 258 173 218 295 334 334 328 322 332 339 336 335 332 327 326 327 327 328 329 328 326 324 323 322 320 318 318 318 317 317 315 315 314 313 311 310 311 311 310 310
352 295 241 129 126 143 14 328 43 51 25 320 30 345 304 289 128 232 297 303 322 309 285 9 14 172 173 232 196 206 221 214 208 203 199 215 227 229 237 253 250 179 204 252 256 215 185 193 218 277 331 339 333 325 329 333 331 331 329 326 325 325 326 326 326 325 324 323 322 321 319 318 319 318 317 316 315 315 314 313 312 311 310 311 310 309
357 304 262 220 162 145 98 53 61 46 34 32 39 359 334 32 15 325 337 309 315 312 297 341 0 355 153 113 190 207 215 216 211 191 190 225 244 241 237 249 257 177 210 257 277 97 100 207 251 308 335 339 332 325 326 327 328 329 325 323 322 322 323 323 323 324 323 323 321 318 317 317 317 317 316 315 314 315 314 313 312 311 309 310 310 309
314 205 263 260 166 142 98 47 5 0 21 33 30 8 355 270 274 287 281 262 288 306 302 324 342 340 111 84 160 186 195 201 205 192 193 217 234 246 260 266 277 273 245 267 87 78 34 354 326 335 345 336 330 326 328 330 329 326 322 321 320 320 322 322 324 325 324 322 320 317 316 316 316 316 315 314 314 315 313 312 311 310 309 309 309 308
307 248 300 306 129 119 63 34 35 4 2 20 36 13 353 335 311 268 221 185 4 305 298 313 312 261 147 225 44 114 165 179 190 200 210 231 247 280 313 323 333 323 292 39 65 51 21 349 333 341 339 330 327 328 332 330 325 322 319 319 319 321 323 323 324 324 322 321 319 317 316 316 316 316 315 314 314 313 312 310 310 310 310 308 308 308
342 311 298 302 315 71 91 59 39 58 44 41 52 15 349 350 350 325 294 49 47 294 260 297 301 261 164 196 211 109 129 131 102 99 126 312 311 310 314 315 317 314 354 73 69 37 0 337 329 331 329 328 331 333 332 327 323 320 319 320 320 321 322 323 323 322 320 319 317 315 316 315 316 315 315 314 313 312 310 309 309 309 309 308 308 309
10 296 284 296 342 58 93 73 18 95 102 90 78 40 359 16 32 329 283 333 353 294 285 318 310 278 205 185 202 120 101 114 119 146 199 228 246 264 288 317 329 29 69 75 72 26 342 321 322 329 330 330 333 334 329 325 323 321 319 320 321 320 321 321 320 319 318 316 314 314 314 314 314 314 314 313 311 311 310 310 311 310 310 309 309 309
46 298 295 290 74 83 98 338 341 119 129 103 78 53 40 61 70 228 253 338 337 290 320 338 305 289 230 210 201 131 127 150 177 202 219 229 257 297 336 341 352 68 84 74 36 2 329 321 329 336 332 330 333 332 328 325 324 321 319 320 321 320 319 319 318 317 316 315 314 314 313 313 313 313 313 312 312 312 313 313 313 312 311 310 309 308
22 350 319 310 314 345 322 320 324 235 277 41 87 72 69 59 341 275 238 330 219 352 17 329 278 289 179 192 188 152 161 190 208 228 258 306 334 352 348 328 6 79 85 52 353 351 340 333 336 335 331 331 332 330 327 325 323 320 318 319 320 319 317 317 317 316 315 315 313 313 313 313 313 313 313 314 314 314 314 313 312 312 311 310 308 308
328 331 353 353 321 324 315 296 289 273 305 335 120 101 73 38 357 313 276 255 232 345 2 294 266 315 335 195 203 190 192 216 234 306 9 10 357 338 318 316 36 83 90 30 357 342 333 328 330 334 333 332 331 328 327 324 320 318 317 318 318 317 316 316 316 315 315 315 314 313 313 314 315 315 315 315 314 314 314 313 312 311 310 309 308 307
297 303 31 29 250 268 291 294 34 24 290 291 52 84 78 49 11 299 260 261 274 313 304 255 295 320 317 315 309 217 182 240 316 18 7 330 306 307 311 328 26 37 45 90 38 318 318 328 333 335 332 329 327 325 324 322 319 318 319 319 318 316 316 316 316 316 315 315 314 313 313 314 314 315 314 314 313 313 313 312 311 310 309 308 307 307
301 265 83 343 250 248 275 287 26 71 270 288 324 36 190 208 297 299 263 260 297 312 278 287 320 312 302 314 331 17 58 349 349 347 313 299 309 321 333 353 3 345 344 55 19 328 336 339 335 333 329 328 326 323 322 320 317 319 319 318 318 316 316 317 317 317 315 314 314 313 314 314 314 314 313 312 312 312 311 311 310 309 309 308 306 305
334 271 154 306 274 267 265 254 238 257 261 283 298 269 245 215 211 233 249 261 268 245 266 294 308 299 297 314 353 59 33 336 314 297 292 307 318 332 357 354 339 328 340 13 356 339 349 340 333 332 328 327 326 323 321 319 318 320 319 317 316 315 316 318 318 316 315 314 314 313 314 314 313 313 312 312 312 311 310 310 310 309 308 307 305 303
155 274 185 195 285 287 259 211 188 246 253 257 255 252 251 236 219 217 234 252 253 250 267 289 297 294 297 320 36 68 293 280 287 286 294 315 322 337 357 336 322 325 348 1 345 338 344 334 329 329 325 324 324 322 321 321 321 321 319 316 315 315 317 318 317 315 314 313 312 312 312 312 312 313 313 312 311 310 310 309 309 308 307 305 303 302
117 357 182 171 294 293 212 177 202 222 242 259 249 240 239 248 248 232 231 247 256 262 271 283 291 291 274 179 199 237 262 286 296 297 306 320 324 333 336 317 312 331 356 348 334 333 335 329 329 328 323 322 323 322 321 321 320 319 318 316 315 316 317 317 316 315 313 312 312 312 312 313 313 313 313 311 310 310 309 309 308 307 306 304 304 303
19 333 268 72 326 285 173 205 221 195 237 281 262 244 230 230 242 232 226 238 250 274 288 287 285 285 244 197 231 257 305 313 305 303 311 316 318 324 318 304 305 349 350 332 332 336 333 332 332 327 322 322 322 320 318 318 318 318 316 316 316 315 316 316 315 314 312 311 311 312 313 314 314 313 312 311 311 310 310 309 308 307 306 305 305 305
61 324 307 33 327 281 301 300 255 117 1 286 257 241 226 220 237 245 240 249 260 287 297 282 271 280 298 327 323 315 318 314 307 311 319 316 313 310 301 297 338 35 352 339 340 336 335 335 330 322 321 322 319 317 317 319 319 317 315 316 316 315 315 315 314 313 311 311 312 312 313 313 313 312 311 311 311 310 310 310 308 307 307 306 306 305
157 265 282 57 277 275 307 316 307 314 287 258 211 227 215 203 229 246 252 267 276 276 267 263 271 286 311 335 324 310 309 309 308 314 317 310 304 297 296 327 59 28 346 343 334 329 333 328 320 316 317 315 313 313 316 317 315 312 311 313 314 315 315 314 313 312 311 312 312 312 313 313 312 311 310 310 311 311 310 309 308 307 306 306 306 305
284 283 270 124 193 263 299 329 321 273 247 195 134 65 56 87 221 252 264 267 266 266 264 266 273 287 314 325 314 302 299 301 303 309 321 327 321 327 356 37 45 357 336 331 324 326 326 319 314 314 313 311 310 312 315 315 313 310 309 311 313 314 313 313 312 311 310 311 312 312 312 312 311 310 310 310 310 310 309 308 307 306 306 306 305 304
269 296 277 245 226 271 311 345 292 264 221 130 147 139 135 202 224 261 272 261 250 256 265 265 268 291 314 308 300 296 304 312 310 316 30 58 59 59 45 7 336 323 311 312 323 323 316 313 313 312 310 310 311 312 314 313 311 309 309 311 312 311 311 311 310 309 310 310 310 311 311 311 311 310 309 309 309 308 307 307 305 305 305 305 304 302
234 245 288 299 176 171 286 272 260 274 281 165 179 191 161 164 150 157 277 272 256 253 263 266 275 289 293 292 292 305 334 326 310 311 92 89 93 119 191 271 288 292 295 310 317 310 308 310 308 306 308 311 311 310 311 311 310 309 310 310 310 310 310 310 308 308 309 308 308 310 310 311 311 309 308 309 308 307 307 307 306 305 306 305 304 303
246 244 128 136 182 151 277 294 293 290 275 207 169 98 87 93 109 126 240 283 274 176 136 191 255 270 280 289 297 332 5 327 303 300 136 166 178 181 252 280 288 287 289 301 304 304 307 306 303 304 307 308 308 308 308 309 310 309 308 307 308 309 309 308 307 307 307 306 308 308 309 309 310 309 308 307 306 306 306 306 306 305 306 305 303 302
253 251 183 195 252 223 252 289 277 267 271 170 143 129 106 106 121 109 4 296 267 132 157 216 243 262 276 287 298 345 3 307 299 304 166 184 186 230 283 294 299 294 283 282 296 305 304 302 302 301 301 304 308 308 306 307 309 306 304 305 306 307 307 305 305 306 305 306 306 307 308 309 309 307 307 306 306 306 306 306 305 306 305 305 303 302
239 237 198 211 256 241 202 237 254 257 274 128 134 137 128 128 123 75 331 298 238 203 222 223 241 262 269 278 288 280 242 268 288 311 122 135 335 323 311 311 305 293 281 281 292 298 297 298 297 295 297 303 306 304 304 307 307 302 301 304 304 303 304 304 305 305 304 304 306 307 308 308 308 307 307 306 307 307 306 306 306 306 306 304 304 303
216 218 194 209 264 254 225 240 261 256 239 139 134 137 138 128 106 347 304 270 205 216 226 218 244 264 266 268 266 242 235 255 286 314 332 339 330 321 322 314 300 286 276 276 288 293 292 290 288 289 295 300 301 301 301 302 301 299 300 301 299 299 302 304 304 304 303 304 307 308 308 307 308 309 308 308 308 307 307 307 307 307 306 305 304 304
210 213 199 189 245 240 222 235 272 276 227 132 128 135 141 141 297 281 250 205 200 228 235 234 252 260 257 255 254 258 268 280 295 308 315 318 312 312 314 305 294 284 274 276 290 294 289 285 286 289 293 295 297 299 297 295 296 298 299 296 294 297 302 302 302 302 304 306 307 307 308 309 310 310 310 310 310 308 307 308 308 308 307 305 305 304
168 190 234 231 209 221 247 266 286 282 217 141 131 129 169 199 242 262 192 204 235 267 287 276 269 263 255 258 264 272 280 287 294 299 300 300 300 304 303 297 291 280 273 282 291 291 288 286 286 287 290 294 297 297 294 293 295 297 296 293 294 299 300 298 299 302 304 305 306 307 309 310 311 312 312 312 311 309 307 308 309 309 308 306 305 304
176 177 225 240 169 139 232 239 229 230 179 160 162 192 208 215 228 139 152 240 271 284 278 278 275 265 249 259 273 278 279 282 286 289 290 291 294 294 291 290 288 280 278 284 286 286 286 284 283 285 290 296 297 294 293 295 296 295 293 293 296 299 297 297 300 302 302 303 305 308 310 311 312 313 314 314 313 310 308 308 310 309 308 307 306 305
206 179 171 234 214 194 223 243 259 275 197 179 199 226 231 233 223 136 155 251 281 259 242 265 274 276 269 268 275 276 274 277 280 281 284 286 286 286 285 283 281 277 279 282 283 285 283 281 283 287 291 295 294 291 294 298 297 293 292 296 299 298 296 299 302 301 301 304 307 309 311 312 313 315 315 315 314 311 309 310 310 309 307 307 306 304
200 136 100 148 250 265 262 255 260 272 266 228 219 228 234 235 191 140 163 227 245 236 228 233 252 262 261 263 269 267 267 275 280 280 281 281 280 278 277 277 276 276 279 282 282 283 282 282 284 286 289 291 292 292 297 299 294 291 293 296 298 298 299 301 300 299 302 306 308 310 312 313 314 316 316 315 314 312 311 310 309 307 306 306 305 304
163 120 132 216 233 298 269 243 233 250 260 250 234 229 222 212 188 168 184 214 227 232 234 238 256 265 249 238 250 260 267 273 276 277 277 274 272 271 270 273 274 274 275 277 278 280 280 279 281 283 285 288 291 294 297 297 292 290 292 295 297 298 299 298 298 300 304 306 308 311 313 313 314 314 314 313 314 314 313 311 309 306 305 305 305 304
166 116 193 229 220 229 250 255 259 266 264 254 245 243 224 198 185 179 187 207 224 227 225 229 237 242 239 237 242 255 264 266 266 273 274 263 259 258 258 263 267 269 271 272 274 277 277 276 279 281 281 285 290 294 295 293 292 292 293 296 299 299 297 297 300 303 305 306 309 311 312 312 312 311 311 312 314 314 313 312 311 307 304 303 303 302
118 135 202 226 236 254 264 267 277 289 280 260 247 242 210 169 165 173 182 201 218 225 227 229 223 219 226 237 244 252 261 261 260 267 270 262 256 252 254 260 265 266 268 270 272 274 275 274 276 278 279 283 288 291 291 290 291 293 294 297 300 299 296 299 303 304 305 308 309 310 311 311 310 310 310 311 312 312 312 312 311 307 305 306 305 301
137 209 217 216 250 264 262 247 217 271 285 271 240 215 175 144 148 179 202 215 227 227 224 229 231 227 227 230 232 236 246 253 256 261 264 259 253 252 255 260 264 265 267 269 272 274 274 274 276 277 279 283 286 288 288 288 291 294 296 298 300 298 297 300 303 304 305 308 308 308 309 310 310 311 311 310 311 311 312 314 313 308 305 306 307 305
202 220 194 190 232 249 255 241 186 196 265 271 189 174 166 145 156 197 216 222 231 231 223 224 235 236 234 235 235 231 232 241 248 253 257 256 252 252 255 258 260 263 265 265 268 272 274 274 275 275 278 283 286 286 286 288 292 295 297 299 300 298 298 301 302 301 303 305 305 307 308 308 309 310 310 310 311 311 311 313 315 315 313 310 309 310